Weather History for Somerville, NJ

Change the Weather History Date:

Wednesday, May 9, 2012

  Actual Average Record
Temperature  
Mean Temperature 66 °F -  
Max Temperature 73 °F 68 °F 91 °F (1936)
Min Temperature 59 °F 42 °F 30 °F (1956)
Cooling Degree Days 1    
Growing Degree Days 16 (Base 50)    
Moisture  
Dew Point 60 °F    
Average Humidity 88    
Maximum Humidity 100    
Minimum Humidity 56    
Precipitation  
Precipitation 0.07 in - - ()
Sea Level Pressure  
Sea Level Pressure 29.70 in    
Wind  
Wind Speed 0 mph (SW)    
Max Wind Speed 6 mph    
Max Gust Speed -    
Visibility 6 miles    
Events Rain    
Averages and records for this station are not official NWS values.
T = Trace of Precipitation, MM = Missing Value Source: NWS Daily Summary

Daily Weather History Graph

Daily Weather History Graph

Search for Another Location

Airport:

Trip Planner

Search our weather history database for the weather conditions in past years. The results will help you decide how hot, cold, wet, or windy it might be!

Date:

Astronomy

May. 09, 2012 Rise Set
Actual Time 5:47 AM EDT 8:03 PM EDT
Civil Twilight 5:17 AM EDT 8:33 PM EDT
Nautical Twilight 4:39 AM EDT 9:11 PM EDT
Astronomical Twilight 3:58 AM EDT 9:53 PM EDT
Moon No Moon Rise 8:59 AM EDT (5/9)
Length of Visible Light 15h 16m
Length of Day
14h 15m
Waning Gibbous, 83% of the Moon is Illuminated
May 9
Waning Gibbous
May 12
Last Quarter
May 20
New
May 28
First Quarter
Jun 4
Full

Hourly Weather History & Observations

Time (EDT) Temp. Dew Point Humidity Pressure Visibility Wind Dir Wind Speed Gust Speed Precip Events Conditions
12:41 AM 60.8 °F 57.2 °F 88% 29.80 in 5.0 mi Calm Calm - 0.02 in Rain Light Rain
12:53 AM 60.1 °F 57.9 °F 93% 29.81 in 5.0 mi Calm Calm - 0.02 in Rain Light Rain
1:35 AM 59.0 °F 57.2 °F 94% 29.79 in 6.0 mi Calm Calm - 0.01 in Rain Light Rain
1:53 AM 59.0 °F 57.9 °F 96% 29.79 in 7.0 mi Calm Calm - 0.01 in   Overcast
2:51 AM 59.0 °F 57.2 °F 94% 29.77 in 5.0 mi Calm Calm - N/A   Overcast
2:53 AM 59.0 °F 57.9 °F 96% 29.76 in 5.0 mi Calm Calm - N/A   Overcast
3:53 AM 59.0 °F 57.9 °F 96% 29.75 in 6.0 mi Calm Calm - N/A   Overcast
4:02 AM 59.0 °F 57.2 °F 94% 29.75 in 4.0 mi Calm Calm - N/A   Overcast
4:53 AM 60.1 °F 57.9 °F 93% 29.73 in 5.0 mi Calm Calm - N/A   Overcast
5:53 AM 60.1 °F 59.0 °F 96% 29.73 in 5.0 mi Calm Calm - N/A   Overcast
6:20 AM 60.8 °F 59.0 °F 94% 29.73 in 4.0 mi Calm Calm - 0.01 in Rain Light Rain
6:53 AM 60.1 °F 59.0 °F 96% 29.73 in 3.0 mi Calm Calm - 0.01 in Rain Light Rain
7:06 AM 60.8 °F 60.8 °F 100% 29.73 in 2.0 mi Calm Calm - 0.00 in   Overcast
7:30 AM 60.8 °F 60.8 °F 100% 29.74 in 3.0 mi Calm Calm - 0.00 in   Overcast
7:53 AM 61.0 °F 60.1 °F 97% 29.73 in 2.0 mi Calm Calm - 0.00 in   Overcast
8:00 AM 60.8 °F 60.8 °F 100% 29.73 in 1.5 mi Calm Calm - 0.00 in Rain Light Rain
8:18 AM 60.8 °F 60.8 °F 100% 29.73 in 2.0 mi Calm Calm - 0.01 in Rain Light Rain
8:42 AM 62.6 °F 60.8 °F 94% 29.73 in 4.0 mi Calm Calm - 0.03 in Rain Light Rain
8:53 AM 62.1 °F 61.0 °F 96% 29.73 in 3.0 mi Calm Calm - 0.03 in   Overcast
9:03 AM 62.6 °F 60.8 °F 94% 29.73 in 2.5 mi Calm Calm - N/A   Overcast
9:19 AM 62.6 °F 60.8 °F 94% 29.72 in 2.0 mi Calm Calm - N/A   Overcast
9:39 AM 62.6 °F 62.6 °F 100% 29.72 in 1.8 mi Calm Calm - N/A   Overcast
9:46 AM 62.6 °F 62.6 °F 100% 29.72 in 2.0 mi Calm Calm - N/A   Overcast
9:49 AM 62.6 °F 62.6 °F 100% 29.71 in 1.8 mi Calm Calm - N/A   Overcast
9:53 AM 63.0 °F 62.1 °F 97% 29.71 in 1.8 mi Calm Calm - N/A   Overcast
10:15 AM 64.4 °F 62.6 °F 94% 29.71 in 2.5 mi Calm Calm - N/A   Overcast
10:22 AM 64.4 °F 62.6 °F 94% 29.72 in 3.0 mi Calm Calm - N/A   Overcast
10:42 AM 66.2 °F 64.4 °F 94% 29.72 in 5.0 mi Calm Calm - N/A   Mostly Cloudy
10:53 AM 66.9 °F 64.0 °F 90% 29.72 in 6.0 mi Calm Calm - N/A   Overcast
11:09 AM 66.2 °F 64.4 °F 94% 29.72 in 6.0 mi Calm Calm - N/A   Overcast
11:31 AM 69.8 °F 64.4 °F 83% 29.71 in 7.0 mi Calm Calm - N/A   Scattered Clouds
11:53 AM 69.1 °F 63.0 °F 81% 29.70 in 8.0 mi Variable 3.5 mph - N/A   Scattered Clouds
12:17 PM 69.8 °F 64.4 °F 83% 29.70 in 8.0 mi Calm Calm - N/A   Mostly Cloudy
12:33 PM 69.8 °F 62.6 °F 78% 29.69 in 10.0 mi Calm Calm - N/A   Overcast
12:53 PM 70.0 °F 62.1 °F 76% 29.68 in 10.0 mi Variable 3.5 mph - N/A   Overcast
1:53 PM 71.1 °F 60.1 °F 68% 29.67 in 10.0 mi Calm Calm - N/A   Overcast
2:53 PM 72.0 °F 57.9 °F 61% 29.65 in 10.0 mi Calm Calm - N/A   Mostly Cloudy
3:53 PM 72.0 °F 57.9 °F 61% 29.63 in 10.0 mi South 3.5 mph - N/A   Scattered Clouds
4:53 PM 73.9 °F 60.1 °F 62% 29.62 in 10.0 mi South 4.6 mph - N/A   Clear
5:53 PM 72.0 °F 62.1 °F 71% 29.62 in 10.0 mi South 4.6 mph - N/A   Mostly Cloudy
6:53 PM 70.0 °F 62.1 °F 76% 29.60 in 10.0 mi Calm Calm - N/A   Scattered Clouds
7:53 PM 66.0 °F 62.1 °F 87% 29.60 in 10.0 mi Calm Calm - N/A   Overcast
8:53 PM 64.9 °F 60.1 °F 84% 29.60 in 10.0 mi NW 3.5 mph - 0.00 in   Overcast
9:53 PM 63.0 °F 59.0 °F 87% 29.59 in 10.0 mi WNW 3.5 mph - N/A   Mostly Cloudy
10:53 PM 64.9 °F 48.9 °F 56% 29.59 in 10.0 mi Calm Calm - N/A   Overcast
11:53 PM 62.1 °F 48.9 °F 62% 29.58 in 10.0 mi Variable 5.8 mph - 0.00 in   Overcast